Retour au catalogue

STARLINK-35668

ActifCommunicationsVLEO
NORAD 66401·PAYLOAD·🇺🇸 United States

Lancé Nov 8, 2025 depuis Cape Canaveral Space Force Station

Loading…

Prochains Passages (prochaines 24 heures)

TLE

FraisSource: CelesTrak SupGP

Époque: Sep 14, 2026, 21:06 UTC

1 66401C 25257X   26257.87965278  .00051575  00000+0  15245-2 0  2570
2 66401  53.1584  54.1121 0000992  85.8492  60.5207 15.34349815    19

Suivez STARLINK-35668 en temps réel avec AllMySat

Download on the App Store